Location: ???????
(55.4362°N, 38.1183°E)
Time: 23:09:40
(UTC+00:00)

CENTAUR R/B - Visible Passes

Search period start: 23 October 2021 00:00
Search period end: 02 November 2021 00:00
Orbit: 729 x 1458 km, 63.5° (Epoch: 16 October)

Date Brightness Start Highest point End Pass type
(mag) Time Alt. Az. Time Alt. Az. Time Alt. Az.
23 Oct 3.5 15:11:07 10° WNW 15:17:48 47° N 15:25:02 12° ENE visible
23 Oct 3.3 17:02:27 10° NW 17:09:50 60° NNE 17:12:12 46° ENE visible
23 Oct 3.5 18:53:13 10° NW 18:59:22 57° WNW 18:59:22 57° WNW visible
23 Oct 5.1 20:44:33 10° WNW 20:46:32 17° WNW 20:46:32 17° WNW visible
24 Oct 3.4 16:13:59 10° WNW 16:21:09 53° NNE 16:25:25 29° ENE visible
24 Oct 3.0 18:04:52 10° NW 18:12:34 88° WNW 18:12:34 88° WNW visible
24 Oct 4.6 19:55:50 10° NW 19:59:45 27° WNW 19:59:45 27° WNW visible
25 Oct 3.5 15:25:28 10° WNW 15:32:23 48° N 15:38:38 17° ENE visible
25 Oct 3.1 17:16:32 10° NW 17:24:12 75° NNE 17:25:48 60° E visible
25 Oct 3.9 19:07:19 10° NW 19:12:59 43° W 19:12:59 43° W visible
25 Oct 5.4 20:59:44 10° WNW 21:00:09 11° WNW 21:00:09 11° WNW visible
26 Oct 3.5 14:36:52 10° WNW 14:43:36 47° N 14:51:32 10° ENE visible
26 Oct 3.2 16:28:09 10° NW 16:35:36 62° NNE 16:39:05 37° E visible
26 Oct 3.3 18:18:55 10° NW 18:26:15 66° WSW 18:26:15 66° WSW visible
26 Oct 5.0 20:10:23 10° WNW 20:13:25 19° W 20:13:25 19° W visible
27 Oct 3.4 15:39:43 10° WNW 15:46:56 54° NNE 15:52:24 23° E visible
27 Oct 3.0 17:30:34 10° NW 17:38:24 85° SW 17:39:34 70° SE visible
27 Oct 4.4 19:21:35 10° WNW 19:26:45 31° W 19:26:45 31° W visible
28 Oct 3.5 14:51:13 10° WNW 14:58:11 49° N 15:05:45 12° E visible
28 Oct 3.1 16:42:14 10° NW 16:49:56 78° NE 16:52:56 45° ESE visible
28 Oct 3.8 18:33:02 10° NW 18:40:07 46° WSW 18:40:07 46° WSW visible
28 Oct 5.3 20:25:51 10° WNW 20:27:18 12° W 20:27:18 12° W visible
29 Oct 3.2 15:53:52 10° NW 16:01:22 65° NNE 16:06:21 27° ESE visible
29 Oct 3.3 17:44:37 10° NW 17:52:24 63° SW 17:53:32 58° SSW visible
29 Oct 4.9 19:36:14 10° WNW 19:40:44 21° W 19:40:44 21° W visible
30 Oct 3.3 15:05:26 10° WNW 15:12:42 56° NNE 15:19:50 15° E visible
30 Oct 3.1 16:56:16 10° NW 17:04:06 81° SW 17:07:01 47° SE visible
30 Oct 4.4 18:47:21 10° WNW 18:54:13 31° WSW 18:54:13 31° WSW visible
31 Oct 3.4 14:16:56 10° WNW 14:23:59 50° NNE 14:32:10 10° E visible
31 Oct 3.1 16:07:55 10° NW 16:15:40 82° NE 16:20:35 30° ESE visible
31 Oct 3.9 17:58:45 10° NW 18:06:14 43° WSW 18:07:48 40° SSW visible
31 Oct 5.3 19:52:06 10° WNW 19:55:00 13° W 19:55:00 13° W visible
01 Nov 3.2 15:19:33 10° NW 15:27:08 68° NNE 15:34:15 16° ESE visible
01 Nov 3.5 17:10:19 10° NW 17:18:05 59° SW 17:21:28 38° S visible
01 Nov 4.9 19:02:08 10° WNW 19:07:40 20° WSW 19:08:40 20° WSW visible
